Find SITRO-AIS-27

NORAD ID: 59068 Int'l Des: 2024-039 Owner: SITRO Country: RU Constellation: sitronics operational
LEORETROGRADE

リアルタイム位置

3D地球を読み込み中...

SITRO-AIS-27について

説明を読み込み中...

次回通過

Passes for default location (London). Set your location on the main map for personalized predictions.

高度履歴

Loading altitude history...

軌道要素

1 59068U 24039T 26107.31045067 .00004071 00000-0 31897-3 0 9991
2 59068 95.3928 193.4248 0145580 179.3519 180.7923 14.93213468115654
Epoch: Apr 17, 2026 • Age: 6 hours

現在のステータス

高度 682.8 km
速度 7.47 km/s
衛星直下点 -39.20°S, 146.73°E
打ち上げ日 Feb 29, 2024
運用期間 2.1 years
タイプ other

技術仕様

分類 Payload
質量 3.00 kg
乾燥質量 3.00 kg
総質量 3.00 kg
長さ 0.30 m
直径 0.10 m
スパン 0.30 m
形状 Box
製造者 SPUT
バスタイプ Cubesat 3U
フェーズステータス In Orbit
所有者/国 SITRO/RU

Most Searched